"2009-05-13 00:00:00",881595,13.84,281.8,1.314,0.399,19.81,109.5435,23.72,24.69,10.59,0,111.1,13.13,24.56,243.8
"2009-05-13 00:00:30",881596,12.55,280.2,1.172,0.222,19.81,109.5423,23.72,24.7,10.6,0,111.1,13.13,24.55,242.2
"2009-05-13 00:01:00",881597,12.56,280.5,1.732,0.427,19.75,109.539,23.71,24.69,10.66,0,111.1,13.13,24.54,242.5
"2009-05-13 00:01:30",881598,12.16,278.5,2.027,0.331,19.79,109.5376,23.71,24.69,10.66,0,111.1,13.12,24.54,240.5
"2009-05-13 00:02:00",881599,12.58,280.5,4.508,0.407,19.71,109.535,23.7,24.69,10.76,0,111.1,13.12,24.53,242.5
"2009-05-13 00:02:30",881600,13.73,281.2,0.907,0.384,19.86,109.5353,23.7,24.67,10.84,0,111.1,13.12,24.54,243.2
"2009-05-13 00:03:00",881601,12.81,281.4,1.947,0.567,19.82,109.535,23.7,24.69,10.92,0,111.1,13.12,24.53,243.4
"2009-05-13 00:03:30",881602,12.45,274.8,1.897,0.893,19.82,109.535,23.7,24.68,10.79,0,111.1,13.12,24.53,236.8
"2009-05-13 00:04:00",881603,11.79,271.4,2.952,0.749,19.78,109.535,23.7,24.69,10.76,0,111.1,13.12,24.53,233.4
"2009-05-13 00:04:30",881604,13.35,272,2.156,0.52,19.77,109.535,23.7,24.69,10.83,0,111.1,13.12,24.53,234.0
"2009-05-13 00:05:00",881605,12.08,282.5,3.124,0.604,19.76,109.5353,23.7,24.69,11.09,0,111.1,13.12,24.54,244.5
"2009-05-13 00:05:30",881606,11.85,274.5,4.716,0.82,19.77,109.5356,23.7,24.7,10.79,0,111.1,13.13,24.54,236.5
"2009-05-13 00:06:00",881607,11.5,278.7,5.681,0.554,19.67,109.5373,23.71,24.7,10.94,0,111.1,13.13,24.54,240.7
"2009-05-13 00:06:30",881608,9.67,272.7,3.35,0.494,19.75,109.5401,23.71,24.69,11.3,0,111.1,13.13,24.55,234.7
"2009-05-13 00:07:00",881609,11.7,275.4,2.611,0.891,19.71,109.546,23.73,24.68,11.08,0,111.1,13.13,24.56,237.4
"2009-05-13 00:07:30",881610,11.76,275,1.053,0.335,19.76,109.5502,23.74,24.68,10.46,0,111.1,13.13,24.57,237.0
"2009-05-13 00:08:00",881611,11.9,273.1,2.636,0.4,19.76,109.5569,23.76,24.7,10.4,0,111.1,13.13,24.59,235.1
"2009-05-13 00:08:30",881612,13.72,273.5,2.145,0.8,19.73,109.5589,23.76,24.69,10.74,0,111.1,13.13,24.60,235.5
"2009-05-13 00:09:00",881613,13.44,273.8,2.515,0.437,19.85,109.5623,23.77,24.7,10.56,0,111.1,13.13,24.60,235.8
"2009-05-13 00:09:30",881614,14.17,275.4,1.638,0.676,19.86,109.567,23.78,24.7,10.53,0,111.1,13.13,24.62,237.4
"2009-05-13 00:10:00",881615,14.29,276.7,3.014,0.819,19.82,109.5685,23.79,24.7,10.6,0,111.1,13.13,24.62,238.7
"2009-05-13 00:10:30",881616,14.29,272.5,2.468,0.887,19.88,109.5685,23.79,24.71,10.61,0,111.1,13.13,24.62,234.5
"2009-05-13 00:11:00",881617,13.92,271.8,6.767,1.221,19.89,109.5687,23.79,24.72,10.63,0,111.1,13.13,24.62,233.8
"2009-05-13 00:11:30",881618,12.12,267.4,3.533,0.783,19.9,109.5687,23.79,24.73,10.69,0,111.1,13.13,24.62,229.4
"2009-05-13 00:12:00",881619,12.71,278.8,4.76,0.937,19.75,109.5687,23.79,24.73,10.75,0,111.1,13.13,24.62,240.8
"2009-05-13 00:12:30",881620,13.03,271.5,3.143,0.557,19.76,109.5687,23.79,24.72,10.63,0,111.1,13.13,24.62,233.5
"2009-05-13 00:13:00",881621,13.03,273.1,2.631,0.404,19.78,109.5687,23.79,24.74,10.55,0,111.1,13.13,24.62,235.1
"2009-05-13 00:13:30",881622,12.21,273.5,1.272,0.315,19.78,109.5687,23.79,24.74,10.42,0,111.1,13.13,24.62,235.5
"2009-05-13 00:14:00",881623,12.55,275.4,1.191,0.513,19.77,109.5687,23.79,24.75,10.44,0,111.1,13.13,24.62,237.4
"2009-05-13 00:14:30",881624,12.7,276.9,1.758,0.593,19.73,109.5687,23.79,24.75,10.57,0,111.1,13.13,24.62,238.9
"2009-05-13 00:15:00",881625,14.06,273.2,5.171,0.853,19.75,109.5687,23.79,24.75,10.76,0,111.1,13.13,24.62,235.2
"2009-05-13 00:15:30",881626,13.53,266.3,3.286,0.427,19.81,109.569,23.79,24.76,10.91,0,111.1,13.13,24.62,228.3
"2009-05-13 00:16:00",881627,13.22,263.8,3.272,0.715,19.77,109.5698,23.79,24.75,10.77,0,111.1,13.13,24.62,225.8
"2009-05-13 00:16:30",881628,14.6,265.3,1.542,0.771,19.74,109.569,23.79,24.76,10.81,0,111.1,13.13,24.62,227.3
"2009-05-13 00:17:00",881629,14.29,272.5,3.759,0.534,19.76,109.5698,23.79,24.76,11.05,0,111.1,13.13,24.62,234.5
"2009-05-13 00:17:30",881630,13.71,273,2.734,0.549,19.7,109.5707,23.79,24.75,10.85,0,111.1,13.12,24.63,235.0
"2009-05-13 00:18:00",881631,14.9,273.9,2.742,0.508,19.68,109.5701,23.79,24.77,10.7,0,111.1,13.13,24.63,235.9
"2009-05-13 00:18:30",881632,16.29,277.3,4.435,0.785,19.78,109.5698,23.79,24.77,10.88,0,111.1,13.12,24.62,239.3
"2009-05-13 00:19:00",881633,14.45,274.9,4.572,1.052,19.7,109.5687,23.79,24.78,10.94,0,111.1,13.12,24.62,236.9
"2009-05-13 00:19:30",881634,14.64,274.9,3.94,0.874,19.73,109.5687,23.79,24.77,10.76,0,111.1,13.12,24.62,236.9
"2009-05-13 00:20:00",881635,15.98,275.5,2.383,1.035,19.73,109.569,23.79,24.78,10.77,0,111.1,13.12,24.62,237.5
"2009-05-13 00:20:30",881636,15.99,279.8,2.318,0.426,19.7,109.5687,23.79,24.77,10.72,0,111.1,13.12,24.62,241.8
"2009-05-13 00:21:00",881637,14.71,276.8,2.444,0.542,19.79,109.5687,23.79,24.76,10.57,0,111.1,13.12,24.62,238.8
"2009-05-13 00:21:30",881638,15.51,278.6,1.306,0.847,19.72,109.5687,23.79,24.77,10.59,0,111.1,13.12,24.62,240.6
"2009-05-13 00:22:00",881639,15.78,275.2,2.224,0.343,19.75,109.5673,23.78,24.77,10.45,0,111.1,13.12,24.62,237.2
"2009-05-13 00:22:30",881640,15.42,273,2.57,0.378,19.73,109.564,23.77,24.75,10.59,0,111.1,13.13,24.61,235.0
"2009-05-13 00:23:00",881641,14.93,275.7,2.633,0.494,19.67,109.5575,23.76,24.73,10.69,0,111.1,13.13,24.59,237.7
"2009-05-13 00:23:30",881642,15.34,275.2,1.373,0.31,19.78,109.5541,23.75,24.73,10.53,0,111.1,13.13,24.58,237.2
"2009-05-13 00:24:00",881643,15.63,277,1.448,0.536,19.85,109.5393,23.71,24.71,10.48,0,111.1,13.13,24.55,239.0
"2009-05-13 00:24:30",881644,14.96,277.5,1.921,0.75,19.78,109.535,23.7,24.72,10.56,0,111.1,13.13,24.53,239.5
"2009-05-13 00:25:00",881645,13.95,275.3,2.486,0.488,19.8,109.535,23.7,24.7,10.55,0,111.1,13.13,24.53,237.3
"2009-05-13 00:25:30",881646,13.6,272.6,3.65,0.534,19.8,109.535,23.7,24.7,10.71,0,111.1,13.13,24.53,234.6
"2009-05-13 00:26:00",881647,13.32,274.5,1.909,0.445,19.76,109.535,23.7,24.69,10.74,0,111.1,13.13,24.53,236.5
"2009-05-13 00:26:30",881648,14.47,272.2,3.31,0.732,19.79,109.535,23.7,24.68,10.8,0,111.1,13.13,24.53,234.2
"2009-05-13 00:27:00",881649,14.11,274.3,2.365,0.757,19.77,109.535,23.7,24.68,10.92,0,111.1,13.13,24.53,236.3
"2009-05-13 00:27:30",881650,14.36,268.9,3.904,0.519,19.73,109.535,23.7,24.69,10.84,0,111.1,13.13,24.53,230.9
"2009-05-13 00:28:00",881651,13.7,274.7,2.783,0.535,19.79,109.535,23.7,24.66,10.76,0,111.1,13.13,24.53,236.7
"2009-05-13 00:28:30",881652,13.42,268.7,4.381,0.591,19.74,109.535,23.7,24.68,10.78,0,111.1,13.13,24.53,230.7
"2009-05-13 00:29:00",881653,14.23,271.9,1.868,0.602,19.7,109.535,23.7,24.67,10.99,0,111.1,13.13,24.53,233.9
"2009-05-13 00:29:30",881654,13.79,277.9,2.74,0.654,19.76,109.535,23.7,24.68,10.74,0,111.1,13.13,24.53,239.9
"2009-05-13 00:30:00",881655,13.18,278.6,1.718,0.569,19.81,109.5348,23.7,24.66,10.7,0,111.1,13.13,24.53,240.6
"2009-05-13 00:30:30",881656,13.82,283.9,3.211,0.394,19.74,109.535,23.7,24.65,10.84,0,111.1,13.13,24.53,245.9
"2009-05-13 00:31:00",881657,14.49,279.3,3.7,0.606,19.73,109.5348,23.7,24.64,10.7,0,111.1,13.13,24.53,241.3
"2009-05-13 00:31:30",881658,14.73,273.5,3.451,0.487,19.75,109.5325,23.69,24.65,10.85,0,111.1,13.14,24.53,235.5
"2009-05-13 00:32:00",881659,15.75,270.7,2.326,0.982,19.73,109.5291,23.68,24.64,10.94,0,111.1,13.13,24.52,232.7
"2009-05-13 00:32:30",881660,15.15,277.8,3.495,1.295,19.71,109.5252,23.67,24.65,11.13,0,111.1,13.14,24.51,239.8
"2009-05-13 00:33:00",881661,14.9,276.3,2.835,1.441,19.65,109.5252,23.67,24.63,11.13,0,111.1,13.14,24.51,238.3
"2009-05-13 00:33:30",881662,13.9,275.4,3.515,1.255,19.74,109.526,23.68,24.64,11.03,0,111.1,13.13,24.51,237.4
"2009-05-13 00:34:00",881663,14.5,274.7,4.89,1.049,19.86,109.5207,23.66,24.64,10.87,0,111.1,13.14,24.50,236.7
"2009-05-13 00:34:30",881664,15.39,268.5,2.906,0.57,19.8,109.5137,23.65,24.64,10.42,0,111.1,13.13,24.48,230.5
"2009-05-13 00:35:00",881665,16.51,267.8,3.46,1.061,19.77,109.5112,23.64,24.63,10.59,0,111.1,13.13,24.47,229.8
"2009-05-13 00:35:30",881666,17.33,274.7,2.601,1.33,19.92,109.5112,23.64,24.65,10.03,0,111.1,13.13,24.47,236.7
"2009-05-13 00:36:00",881667,14.94,271.5,3.555,0.569,19.83,109.5126,23.64,24.63,9.93,0,111.1,13.12,24.48,233.5
"2009-05-13 00:36:30",881668,14.63,267.5,1.287,0.557,19.76,109.5137,23.65,24.63,10.08,0,111.1,13.12,24.48,229.5
"2009-05-13 00:37:00",881669,14.55,265.5,2.523,0.499,19.82,109.5115,23.64,24.63,10.31,0,111.1,13.12,24.47,227.5
"2009-05-13 00:37:30",881670,15.5,265.3,3.399,0.482,19.78,109.5086,23.63,24.62,10.7,0,111.1,13.12,24.47,227.3
"2009-05-13 00:38:00",881671,15.57,267.9,3.031,0.791,19.84,109.5053,23.62,24.62,10.49,0,111.1,13.12,24.46,229.9
"2009-05-13 00:38:30",881672,15.02,264.9,5.363,1.045,19.78,109.5013,23.61,24.61,10.63,0,111.1,13.12,24.45,226.9
"2009-05-13 00:39:00",881673,16.49,269.5,3.472,0.907,19.84,109.5013,23.61,24.61,10.54,0,111.1,13.12,24.45,231.5
"2009-05-13 00:39:30",881674,15.84,275.6,3.485,0.637,19.94,109.5013,23.61,24.61,10.61,0,111.1,13.13,24.45,237.6
"2009-05-13 00:40:00",881675,13.77,281.4,5.825,1.01,19.86,109.5013,23.61,24.61,10.59,0,111.1,13.13,24.45,243.4
"2009-05-13 00:40:30",881676,12.57,281.6,7.061,0.692,19.77,109.5013,23.61,24.6,10.62,0,111.1,13.13,24.45,243.6
"2009-05-13 00:41:00",881677,12.14,275.1,3.853,0.887,19.78,109.5013,23.61,24.6,10.74,0,111.1,13.14,24.45,237.1
"2009-05-13 00:41:30",881678,12.98,271,1.664,0.333,19.78,109.5013,23.61,24.58,10.68,0,111.1,13.14,24.45,233.0
"2009-05-13 00:42:00",881679,12.92,276.9,5.597,0.401,19.78,109.5008,23.61,24.58,10.88,0,111.1,13.13,24.45,238.9
"2009-05-13 00:42:30",881680,13.45,272,2.404,0.902,19.73,109.4943,23.6,24.58,10.98,0,111.1,13.13,24.43,234.0
"2009-05-13 00:43:00",881681,12.34,270.9,3.759,0.402,19.76,109.4918,23.59,24.57,11.02,0,111.1,13.13,24.42,232.9
"2009-05-13 00:43:30",881682,12.41,264,2.469,0.576,19.81,109.487,23.58,24.57,11.12,0,111.1,13.13,24.41,226.0
"2009-05-13 00:44:00",881683,11.96,269.4,2.311,0.602,19.77,109.4837,23.57,24.56,11.13,0,111.1,13.13,24.40,231.4
"2009-05-13 00:44:30",881684,12.61,264.5,2.349,0.406,19.81,109.4772,23.55,24.56,11.02,0,111.1,13.13,24.39,226.5
"2009-05-13 00:45:00",881685,12.86,266.9,2.385,0.475,19.78,109.4719,23.54,24.56,10.86,0,111.1,13.13,24.37,228.9
"2009-05-13 00:45:30",881686,12.15,267.3,2.334,0.91,19.77,109.4682,23.53,24.56,10.83,0,111.1,13.13,24.36,229.3
"2009-05-13 00:46:00",881687,10.41,265.9,2.649,0.355,19.77,109.4685,23.53,24.55,10.93,0,111.1,13.13,24.36,227.9
"2009-05-13 00:46:30",881688,11.63,266,3.056,0.471,19.73,109.4677,23.53,24.55,11.1,0,111.1,13.13,24.36,228.0
"2009-05-13 00:47:00",881689,12.44,267.4,1.892,0.406,19.77,109.4677,23.53,24.55,10.85,0,111.1,13.13,24.36,229.4
"2009-05-13 00:47:30",881690,12.53,269.5,1.436,0.376,19.75,109.4677,23.53,24.55,10.9,0,111.1,13.13,24.36,231.5
"2009-05-13 00:48:00",881691,12.48,269.5,1.929,0.475,19.78,109.4677,23.53,24.54,10.71,0,111.1,13.13,24.36,231.5
"2009-05-13 00:48:30",881692,14.32,267.1,2.107,0.466,19.77,109.4677,23.53,24.54,10.76,0,111.1,13.13,24.36,229.1
"2009-05-13 00:49:00",881693,13.59,267.4,1.29,0.342,19.8,109.4679,23.53,24.54,10.89,0,111.1,13.13,24.36,229.4
"2009-05-13 00:49:30",881694,13.07,262.2,4.085,0.341,19.85,109.4679,23.53,24.52,10.81,0,111.1,13.13,24.36,224.2
"2009-05-13 00:50:00",881695,13.17,261,4.713,0.714,19.94,109.4658,23.52,24.52,10.44,0,111.1,13.13,24.36,223.0
"2009-05-13 00:50:30",881696,12.8,259.3,4.085,0.444,19.86,109.4613,23.51,24.52,10.36,0,111.1,13.14,24.34,221.3
"2009-05-13 00:51:00",881697,10.83,269.3,3.772,0.767,19.8,109.4675,23.53,24.5,10.18,0,111.1,13.14,24.36,231.3
"2009-05-13 00:51:30",881698,11.14,272.3,4.336,0.595,19.77,109.4667,23.52,24.52,10.58,0,111.1,13.13,24.36,234.3
"2009-05-13 00:52:00",881699,12.26,265.2,2.089,0.464,19.75,109.4699,23.53,24.5,10.74,0,111.1,13.13,24.37,227.2
"2009-05-13 00:52:30",881700,12,260.1,3.644,0.644,19.8,109.4716,23.54,24.51,11.15,0,111.1,13.13,24.37,222.1
"2009-05-13 00:53:00",881701,13.93,262.4,3.669,2.57,19.91,109.4731,23.54,24.51,10.89,0,111.1,13.13,24.38,224.4
"2009-05-13 00:53:30",881702,17.38,265.9,5.656,1.394,19.96,109.4779,23.55,24.51,10.16,0,111.1,13.13,24.39,227.9
"2009-05-13 00:54:00",881703,16.92,273.8,4.96,0.804,19.91,109.4819,23.56,24.49,10.04,0,111.1,13.13,24.40,235.8
"2009-05-13 00:54:30",881704,17.07,284.1,6.181,1.021,19.97,109.4827,23.57,24.5,9.94,0,111.1,13.13,24.40,246.1
"2009-05-13 00:55:00",881705,15.19,291.2,2.973,1.081,19.96,109.4886,23.58,24.5,9.89,0,111.1,13.13,24.41,253.2
"2009-05-13 00:55:30",881706,14.07,286,4.349,0.934,20.02,109.491,23.59,24.51,9.88,0,111.1,13.13,24.42,248.0
"2009-05-13 00:56:00",881707,14.41,287.2,2.741,0.639,19.95,109.4932,23.59,24.52,9.89,0,111.1,13.13,24.43,249.2
"2009-05-13 00:56:30",881708,13.47,285,3.037,0.582,19.98,109.4935,23.59,24.51,9.96,0,111.1,13.13,24.43,247.0
"2009-05-13 00:57:00",881709,14.09,280.3,7.091,1.032,19.96,109.4947,23.6,24.53,10.06,0,111.1,13.13,24.43,242.3
"2009-05-13 00:57:30",881710,11.39,267.1,1.897,1.171,19.93,109.4947,23.6,24.51,10.46,0,111.1,13.14,24.43,229.1
"2009-05-13 00:58:00",881711,10.77,269.2,2.973,0.376,19.87,109.495,23.6,24.53,10.75,0,111.1,13.14,24.43,231.2
"2009-05-13 00:58:30",881712,11.19,281,2.946,0.833,19.85,109.4953,23.6,24.53,10.64,0,111.1,13.14,24.43,243.0
"2009-05-13 00:59:00",881713,9.51,279.5,5.388,0.604,19.83,109.4903,23.59,24.53,10.73,0,111.1,13.14,24.42,241.5
"2009-05-13 00:59:30",881714,10.93,283.4,4.498,0.774,19.85,109.4782,23.55,24.5,10.57,0,111.1,13.14,24.39,245.4
"2009-05-13 01:00:00",881715,13.03,275.7,5.09,1.292,19.87,109.4709,23.54,24.49,10.71,0,111.1,13.14,24.37,237.7
"2009-05-13 01:00:30",881716,13.47,269.3,2.488,0.886,20.06,109.4701,23.53,24.49,10.36,0,111.1,13.14,24.37,231.3
"2009-05-13 01:01:00",881717,12.49,272,1.997,0.4,19.97,109.4679,23.53,24.49,10.4,0,111.1,13.14,24.36,234.0
"2009-05-13 01:01:30",881718,11.4,275.8,2.895,0.451,19.92,109.4662,23.52,24.49,10.62,0,111.1,13.14,24.36,237.8
"2009-05-13 01:02:00",881719,11.07,282.9,1.669,0.272,19.95,109.4649,23.52,24.5,10.43,0,111.1,13.14,24.35,244.9
"2009-05-13 01:02:30",881720,10.56,277.3,3.968,0.396,19.96,109.4644,23.52,24.47,10.48,0,111.1,13.14,24.35,239.3
"2009-05-13 01:03:00",881721,10.7,273.3,3.374,0.482,19.95,109.4653,23.52,24.49,10.55,0,111.1,13.14,24.35,235.3
"2009-05-13 01:03:30",881722,12.13,284.2,4.54,0.951,19.85,109.4687,23.53,24.48,10.66,0,111.1,13.14,24.36,246.2
"2009-05-13 01:04:00",881723,12.95,274.8,3.305,0.749,19.92,109.469,23.53,24.48,10.67,0,111.1,13.14,24.36,236.8
"2009-05-13 01:04:30",881724,12.27,268.8,3.836,0.63,20.04,109.4696,23.53,24.47,10.58,0,111.1,13.14,24.37,230.8
"2009-05-13 01:05:00",881725,12.22,278,2.46,0.517,20,109.4706,23.53,24.47,10.52,0,111.1,13.14,24.37,240.0
"2009-05-13 01:05:30",881726,11.73,278.3,2.302,0.453,19.91,109.4703,23.53,24.46,10.58,0,111.1,13.14,24.37,240.3
"2009-05-13 01:06:00",881727,11.31,269,3.618,1.102,19.95,109.468,23.53,24.46,10.75,0,111.1,13.14,24.36,231.0
"2009-05-13 01:06:30",881728,9.08,263.9,2.344,0.388,19.93,109.4621,23.51,24.46,10.95,0,111.1,13.14,24.35,225.9
"2009-05-13 01:07:00",881729,8.86,265,1.554,0.38,19.88,109.454,23.49,24.45,10.83,0,111.1,13.14,24.33,227.0
"2009-05-13 01:07:30",881730,8.56,266.2,1.648,0.434,19.8,109.4458,23.47,24.47,11.08,0,111.1,13.14,24.30,228.2
"2009-05-13 01:08:00",881731,8.72,263.8,2.384,0.194,19.89,109.4433,23.46,24.45,11.07,0,111.1,13.14,24.30,225.8
"2009-05-13 01:08:30",881732,8.47,262.3,2.031,0.281,19.89,109.4388,23.45,24.44,11.11,0,111.1,13.14,24.29,224.3
"2009-05-13 01:09:00",881733,8.56,264.6,1.254,0.371,19.83,109.4374,23.45,24.44,11.23,0,111.1,13.14,24.28,226.6
"2009-05-13 01:09:30",881734,8.84,261.8,2.168,0.773,19.96,109.4371,23.45,24.45,11.16,0,111.1,13.14,24.28,223.8
"2009-05-13 01:10:00",881735,9.98,274.4,4.368,0.43,19.93,109.4371,23.45,24.43,10.98,0,111.1,13.14,24.28,236.4
"2009-05-13 01:10:30",881736,9.66,271.3,3.504,0.39,19.95,109.4371,23.45,24.44,10.78,0,111.1,13.14,24.28,233.3
"2009-05-13 01:11:00",881737,9.19,273.8,3.82,0.45,20.01,109.4371,23.45,24.43,10.65,0,111.1,13.14,24.28,235.8
"2009-05-13 01:11:30",881738,9.15,279.7,3.436,0.499,19.89,109.4371,23.45,24.43,10.87,0,111.1,13.14,24.28,241.7
"2009-05-13 01:12:00",881739,10.81,277.3,3.831,1.345,20,109.4371,23.45,24.43,10.8,0,111.1,13.14,24.28,239.3
"2009-05-13 01:12:30",881740,12.66,273.7,4.456,0.705,20.19,109.4371,23.45,24.41,10.58,0,111.1,13.14,24.28,235.7
"2009-05-13 01:13:00",881741,12.4,281.1,3.008,0.458,20.19,109.4371,23.45,24.43,10.27,0,111.1,13.14,24.28,243.1
"2009-05-13 01:13:30",881742,12.57,279.7,3.62,0.58,20.28,109.4371,23.45,24.41,10.22,0,111.1,13.14,24.28,241.7
"2009-05-13 01:14:00",881743,12.45,282.4,3.709,0.641,20.27,109.4363,23.45,24.4,10.32,0,111.1,13.14,24.28,244.4
"2009-05-13 01:14:30",881744,11.66,274.2,2.511,1.319,20.26,109.4341,23.44,24.41,10.49,0,111.1,13.14,24.27,236.2
"2009-05-13 01:15:00",881745,10.24,275.1,2.722,0.533,20.28,109.4256,23.42,24.4,10.67,0,111.1,13.14,24.25,237.1
"2009-05-13 01:15:30",881746,10.11,278.5,3.209,0.513,20.17,109.4147,23.39,24.4,10.86,0,111.1,13.14,24.22,240.5
"2009-05-13 01:16:00",881747,10.8,273.9,4.013,0.482,20.26,109.4074,23.37,24.39,10.92,0,111.1,13.14,24.21,235.9
"2009-05-13 01:16:30",881748,10.76,280.1,3.161,0.984,20.29,109.4034,23.36,24.39,10.73,0,111.1,13.14,24.20,242.1
"2009-05-13 01:17:00",881749,11.65,285.9,5.198,0.583,20.21,109.4034,23.36,24.39,10.61,0,111.1,13.15,24.20,247.9
"2009-05-13 01:17:30",881750,12.54,275.3,3.648,1.345,20.31,109.4034,23.36,24.37,10.52,0,111.1,13.15,24.20,237.3
"2009-05-13 01:18:00",881751,12.25,276,4.307,0.816,20.24,109.4034,23.36,24.37,10.31,0,111.1,13.15,24.20,238.0
"2009-05-13 01:18:30",881752,11.58,276,4.815,0.476,20.08,109.4034,23.36,24.35,10.74,0,111.1,13.15,24.20,238.0
"2009-05-13 01:19:00",881753,11.03,271.7,5.853,0.546,20.1,109.4006,23.35,24.33,10.97,0,111.1,13.15,24.19,233.7
"2009-05-13 01:19:30",881754,12.81,271.5,4.161,1.197,20.19,109.3905,23.33,24.34,10.75,0,111.1,13.15,24.16,233.5
"2009-05-13 01:20:00",881755,12.69,275.3,3.754,0.556,20.12,109.3815,23.31,24.34,10.52,0,111,13.15,24.14,237.3
"2009-05-13 01:20:30",881756,11.31,279.2,4.329,0.568,20,109.3776,23.3,24.32,10.85,0,111.1,13.15,24.13,241.2
"2009-05-13 01:21:00",881757,12.31,277.9,2.334,1.426,20,109.3735,23.29,24.32,10.95,0,111,13.15,24.12,239.9
"2009-05-13 01:21:30",881758,14.81,277.9,3.57,1.278,20.29,109.3712,23.28,24.31,10.46,0,111.1,13.15,24.11,239.9
"2009-05-13 01:22:00",881759,16.27,280.7,2.426,0.892,20.36,109.3725,23.28,24.31,9.84,0,111.1,13.15,24.12,242.7
"2009-05-13 01:22:30",881760,15.59,278.6,1.461,0.471,20.32,109.3779,23.3,24.31,9.78,0,111.1,13.15,24.13,240.6
"2009-05-13 01:23:00",881761,15.1,280.9,2.848,0.821,20.37,109.3858,23.32,24.3,9.83,0,111,13.15,24.15,242.9
"2009-05-13 01:23:30",881762,13.23,279.8,2.137,0.761,20.33,109.3963,23.34,24.3,9.59,0,111,13.15,24.18,241.8
"2009-05-13 01:24:00",881763,12.61,277.8,3.126,0.546,20.19,109.4128,23.39,24.31,9.88,0,111,13.15,24.22,239.8
"2009-05-13 01:24:30",881764,14.25,277.8,2.932,0.976,20.38,109.428,23.43,24.32,9.89,0,111,13.15,24.26,239.8
"2009-05-13 01:25:00",881765,17.72,272.4,2.111,1.097,20.23,109.4292,23.43,24.31,10,0,111,13.15,24.26,234.4
"2009-05-13 01:25:30",881766,17.27,277.9,2.927,0.712,20.37,109.4308,23.43,24.31,10.04,0,111,13.15,24.27,239.9
"2009-05-13 01:26:00",881767,14.43,285,3.645,0.927,20.44,109.4311,23.43,24.34,9.91,0,111,13.15,24.27,247.0
"2009-05-13 01:26:30",881768,12.78,288.6,5.588,1.223,20.46,109.4311,23.43,24.33,9.87,0,111,13.14,24.27,250.6
"2009-05-13 01:27:00",881769,13.67,281.8,1.978,1.09,20.53,109.4311,23.43,24.34,9.89,0,111,13.14,24.27,243.8
"2009-05-13 01:27:30",881770,14.67,277.8,3.152,0.979,20.43,109.4314,23.43,24.36,10.16,0,111,13.14,24.27,239.8
"2009-05-13 01:28:00",881771,15.6,279,2.619,0.915,20.59,109.4317,23.43,24.37,10.15,0,111,13.14,24.27,241.0
"2009-05-13 01:28:30",881772,15.39,280.9,2.703,0.668,20.59,109.4348,23.44,24.35,9.98,0,111,13.14,24.28,242.9
"2009-05-13 01:29:00",881773,15.85,282.4,3.611,0.716,20.58,109.4372,23.45,24.34,9.96,0,111,13.14,24.28,244.4
"2009-05-13 01:29:30",881774,17.58,288.7,5.825,1.334,20.54,109.4385,23.45,24.35,9.88,0,111,13.14,24.29,250.7
"2009-05-13 01:30:00",881775,16.3,296.7,3.527,0.861,20.55,109.4391,23.45,24.35,9.72,0,111,13.14,24.29,258.7
"2009-05-13 01:30:30",881776,13.22,295.8,3.193,1.101,20.53,109.4389,23.45,24.35,9.7,0,111,13.14,24.29,257.8
"2009-05-13 01:31:00",881777,12.52,291,3.307,0.409,20.51,109.4339,23.44,24.35,9.8,0,111,13.15,24.27,253.0
"2009-05-13 01:31:30",881778,12.37,282.1,6.105,0.647,20.51,109.4296,23.43,24.35,9.91,0,111,13.15,24.26,244.1
"2009-05-13 01:32:00",881779,11.47,275.4,2.914,0.725,20.49,109.419,23.4,24.34,10.19,0,111,13.15,24.24,237.4
"2009-05-13 01:32:30",881780,11.31,276.8,2.39,0.526,20.6,109.4114,23.38,24.34,10.12,0,111,13.15,24.22,238.8
"2009-05-13 01:33:00",881781,11.59,279,2.465,0.473,20.46,109.4066,23.37,24.34,10.16,0,111,13.15,24.20,241.0
"2009-05-13 01:33:30",881782,12.43,282.9,2.839,0.399,20.52,109.4066,23.37,24.33,10.05,0,111,13.15,24.20,244.9
"2009-05-13 01:34:00",881783,12.5,285.9,2.638,0.627,20.53,109.4066,23.37,24.32,10.06,0,111,13.16,24.20,247.9
"2009-05-13 01:34:30",881784,13.73,284.9,1.853,0.495,20.52,109.406,23.37,24.32,10.06,0,111,13.16,24.20,246.9
"2009-05-13 01:35:00",881785,13.3,290.6,1.4,0.3,20.54,109.3959,23.34,24.3,9.98,0,111,13.16,24.18,252.6
"2009-05-13 01:35:30",881786,12.73,287.5,1.81,0.344,20.56,109.3847,23.31,24.31,9.94,0,111,13.16,24.15,249.5
"2009-05-13 01:36:00",881787,13.65,284.4,1.527,0.34,20.57,109.3796,23.3,24.29,9.91,0,111,13.16,24.13,246.4
"2009-05-13 01:36:30",881788,12.89,287.2,1.023,0.522,20.45,109.3746,23.29,24.29,10,0,111,13.16,24.12,249.2
"2009-05-13 01:37:00",881789,11.61,285.3,1.151,0.268,20.47,109.3732,23.28,24.29,10.01,0,111,13.16,24.12,247.3
"2009-05-13 01:37:30",881790,11.1,286.1,2.449,0.334,20.55,109.3732,23.28,24.27,9.97,0,111,13.16,24.12,248.1
"2009-05-13 01:38:00",881791,11.98,286.1,1.801,0.313,20.53,109.3744,23.29,24.27,9.92,0,111,13.16,24.12,248.1
"2009-05-13 01:38:30",881792,12.01,286.8,3.056,0.376,20.43,109.3757,23.29,24.27,10.05,0,111,13.16,24.12,248.8
"2009-05-13 01:39:00",881793,11.71,291.8,2.916,0.26,20.31,109.3754,23.29,24.26,10.21,0,111,13.16,24.12,253.8
"2009-05-13 01:39:30",881794,11.42,287.2,2.461,0.307,20.38,109.3731,23.28,24.25,10.21,0,111,13.16,24.12,249.2
"2009-05-13 01:40:00",881795,11.2,282.2,3.236,0.338,20.58,109.374,23.29,24.25,10.07,0,111,13.16,24.12,244.2
"2009-05-13 01:40:30",881796,11,280.4,2.74,0.269,20.61,109.3682,23.27,24.24,10.04,0,111,13.16,24.10,242.4
"2009-05-13 01:41:00",881797,10.7,278.6,1.833,0.327,20.53,109.3624,23.26,24.23,10.12,0,111,13.16,24.09,240.6
"2009-05-13 01:41:30",881798,9.93,275.5,2.089,0.242,20.55,109.3583,23.25,24.23,10.19,0,111,13.16,24.08,237.5
"2009-05-13 01:42:00",881799,9.81,280.2,2.027,0.202,20.51,109.3598,23.25,24.23,10.23,0,111,13.16,24.08,242.2
"2009-05-13 01:42:30",881800,9.95,280.9,2.129,0.264,20.43,109.3622,23.26,24.23,10.26,0,111,13.16,24.09,242.9
"2009-05-13 01:43:00",881801,10.4,271.9,2.393,0.239,20.54,109.3653,23.26,24.21,10.39,0,111,13.16,24.10,233.9
"2009-05-13 01:43:30",881802,9.92,271.8,1.7,0.226,20.52,109.3665,23.27,24.21,10.5,0,110.9,13.16,24.10,233.8
"2009-05-13 01:44:00",881803,10.16,274.2,1.043,0.285,20.63,109.3649,23.26,24.2,10.48,0,110.9,13.16,24.10,236.2
"2009-05-13 01:44:30",881804,10.09,274.4,0.707,0.127,20.65,109.3519,23.23,24.2,10.43,0,110.9,13.16,24.06,236.4
"2009-05-13 01:45:00",881805,10.27,274.8,3.035,0.452,20.74,109.3436,23.21,24.18,10.33,0,110.9,13.16,24.04,236.8
"2009-05-13 01:45:30",881806,9.43,274,2.371,0.507,20.72,109.3407,23.2,24.18,10.05,0,110.9,13.16,24.03,236.0
"2009-05-13 01:46:00",881807,8.63,271.3,1.746,0.282,20.6,109.3398,23.2,24.18,10.24,0,110.9,13.16,24.03,233.3
"2009-05-13 01:46:30",881808,9.12,274.9,2.438,0.342,20.59,109.3414,23.2,24.17,10.22,0,110.9,13.16,24.04,236.9
"2009-05-13 01:47:00",881809,9.51,272.1,1.042,0.27,20.61,109.342,23.2,24.17,10.28,0,110.9,13.16,24.04,234.1
"2009-05-13 01:47:30",881810,9.67,274.7,1.927,0.288,20.58,109.3423,23.21,24.15,10.42,0,110.9,13.16,24.04,236.7
"2009-05-13 01:48:00",881811,9.03,275.2,1.102,0.259,20.56,109.3423,23.21,24.17,10.49,0,110.9,13.16,24.04,237.2